Skip Page Navigation
NASA JPL Caltech
NASA Logo - Jet Propulsion Laboratory + View the NASA Portal
+ Center for Near-Earth Object Studies
JPL Home Earth Solar System Stars & Galaxies Technology
JPL Solar System Dynamics
BODIES ORBITS EPHEMERIDES TOOLS PHYSICAL DATA DISCOVERY FAQ SITE MAP
JPL Small-Body Database Browser
Search: [ help ]  
(2014 FF72)
Classification: TransNeptunian Object          SPK-ID: 3757909
Ephemeris | Orbit Diagram | Orbital Elements | Physical Parameters ]

[ show orbit diagram ]
Orbital Elements at Epoch 2456871.5 (2014-Aug-02.0) TDB
Reference: JPL 3 (heliocentric ecliptic J2000)
 Element Value Uncertainty (1-sigma)   Units 
e .2715480911173948 0.081961  
a 50.40701885114422 2.3839 au
q 36.71908910319747 2.3963 au
i 27.00645027179691 0.057015 deg
node 302.8745088602913 0.11314 deg
peri 78.91451700553031 22.729 deg
M 121.0582367673143 41.107 deg
tp 2412914.626986336945
(1894-Mar-27.12698634)
11809 TDB
period 130717.8652811115
357.89
9272.9
25.39
d
yr
n .00275402294266214 0.00019537 deg/d
Q 64.09494859909097 3.0312 au
  Orbit Determination Parameters
   # obs. used (total)      11  
   data-arc span      391 days (1.07 yr)  
   first obs. used      2014-03-24  
   last obs. used      2015-04-19  
   planetary ephem.      DE441  
   SB-pert. ephem.      SB441-N16  
   condition code      8  
   norm. resid. RMS      .11906  
   source      ORB  
   producer      Otto Matic  
   solution date      2021-Apr-15 09:42:33  

Additional Information
 Earth MOID = 35.8286 au 
 Jupiter MOID = 32.4123 au 
 T_jup = 5.441 
[ show covariance matrix ]

Ephemeris | Orbit Diagram | Orbital Elements | Physical Parameters ]

Physical Parameter Table
Parameter Symbol Value Units Sigma Reference Notes
absolute magnitude H 6.9   n/a E2016Q83  
Ephemeris | Orbit Diagram | Orbital Elements | Physical Parameters ]
ABOUT SSD CREDITS/AWARDS PRIVACY/COPYRIGHT GLOSSARY LINKS
FirstGov 2021-Apr-19 23:08 UT
(server date/time)  
NASA Home Page
Site Manager:   Ryan S. Park
Webmaster  Alan B. Chamberlin